カタログに戻る

GLOBALSTAR M094

運用中通信LEO
NORAD 39074·PAYLOAD·🇺🇸 United States

打ち上げ Feb 6, 2013 から Baikonur Cosmodrome

Loading…

次のパス (今後24時間)

TLE

最新Source: Space-Track

元期: Sep 14, 2026, 09:02 UTC

1 39074U 13005C   26257.37651053 -.00000114  00000-0 -57600-4 0  9994
2 39074  51.9938 239.2454 0000316 107.9842 252.1059 12.62264790629730

AllMySatでGLOBALSTAR M094をリアルタイム追跡

Download on the App Store